When you browse on this site, cookies collect data to enhance your experience and personalize the content and advertising you see.
Visit our Privacy Policy to learn more. By continuing to use the site, you agree to this use of cookies and data.
  • In Schweiz
  • Länderverzeichnis
  • Für 7 Tage
  • Wassertemperatur
  • Wetterkarte
  • Widgets
  • user-avatar
    Anmelden

    Stündliche Wetter Kalat

    Heute, 25 Mai, Montag

    Zeit Temperatur Niederschläge Wind Luftdruck Luftfeuchtigkeit
    00:00 +2°C° 0 mm 1 m/S 477 mmHg 69%
    01:00 +2°C° 0 mm 1 m/S 476 mmHg 70%
    02:00 +2°C° 0 mm 1 m/S 476 mmHg 71%
    03:00 +1°C° 0 mm 1 m/S 476 mmHg 70%
    04:00 +1°C° 0 mm 1 m/S 475 mmHg 68%
    05:00 +1°C° 0 mm 1 m/S 475 mmHg 67%
    06:00 +2°C° 0 mm 1 m/S 476 mmHg 63%
    07:00 +3°C° 0 mm 1 m/S 477 mmHg 60%
    08:00 +4°C° 0 mm 1 m/S 478 mmHg 56%
    09:00 +5°C° 0 mm 1 m/S 479 mmHg 51%
    10:00 +5°C° 0 mm 2 m/S 479 mmHg 45%
    11:00 +7°C° 0 mm 2 m/S 480 mmHg 40%
    12:00 +7°C° 0 mm 2 m/S 480 mmHg 40%
    13:00 +8°C° 0 mm 2 m/S 481 mmHg 40%
    14:00 +8°C° 0 mm 2 m/S 481 mmHg 40%
    15:00 +8°C° 0 mm 2 m/S 481 mmHg 41%
    16:00 +8°C° 0 mm 2 m/S 480 mmHg 43%
    17:00 +8°C° 0 mm 3 m/S 480 mmHg 45%
    18:00 +7°C° 0 mm 2 m/S 479 mmHg 54%
    19:00 +5°C° 0 mm 2 m/S 479 mmHg 63%
    20:00 +4°C° 0 mm 2 m/S 478 mmHg 71%
    21:00 +4°C° 0 mm 2 m/S 478 mmHg 74%
    22:00 +4°C° 0 mm 1 m/S 478 mmHg 77%
    23:00 +4°C° 0 mm 1 m/S 477 mmHg 80%

    Morgen, 26 Mai, Dienstag

    Zeit Temperatur Niederschläge Wind Luftdruck Luftfeuchtigkeit
    00:00 +3°C° 0 mm 1 m/S 477 mmHg 81%
    01:00 +3°C° 0 mm 1 m/S 477 mmHg 82%
    02:00 +3°C° 0 mm 1 m/S 476 mmHg 83%
    03:00 +3°C° 0 mm 1 m/S 476 mmHg 83%
    04:00 +2°C° 0 mm 1 m/S 476 mmHg 83%
    05:00 +2°C° 0 mm 1 m/S 476 mmHg 84%
    06:00 +3°C° 0 mm 1 m/S 476 mmHg 81%
    07:00 +4°C° 0 mm 1 m/S 477 mmHg 78%
    08:00 +4°C° 0 mm 1 m/S 477 mmHg 75%
    09:00 +6°C° 0 mm 1 m/S 478 mmHg 69%
    10:00 +7°C° 0 mm 1 m/S 479 mmHg 63%
    11:00 +8°C° 0 mm 1 m/S 480 mmHg 56%
    12:00 +9°C° 0 mm 1 m/S 480 mmHg 53%
    13:00 +10°C° 0 mm 1 m/S 480 mmHg 49%
    14:00 +11°C° 0 mm 1 m/S 481 mmHg 46%
    15:00 +10°C° 0.1 mm 2 m/S 481 mmHg 47%
    16:00 +9°C° 0.1 mm 2 m/S 480 mmHg 48%
    17:00 +9°C° 0.1 mm 3 m/S 480 mmHg 49%
    18:00 +8°C° 0.2 mm 2 m/S 480 mmHg 56%
    19:00 +7°C° 0.2 mm 2 m/S 479 mmHg 64%
    20:00 +6°C° 0.2 mm 2 m/S 478 mmHg 72%
    21:00 +5°C° 0.2 mm 2 m/S 478 mmHg 73%
    22:00 +5°C° 0.2 mm 2 m/S 478 mmHg 75%
    23:00 +4°C° 0.2 mm 2 m/S 478 mmHg 77%

    übermorgen, 27 Mai, Mittwoch

    Zeit Temperatur Niederschläge Wind Luftdruck Luftfeuchtigkeit
    00:00 +4°C° 0.1 mm 2 m/S 477 mmHg 79%
    01:00 +4°C° 0.1 mm 2 m/S 477 mmHg 80%
    02:00 +3°C° 0.1 mm 2 m/S 477 mmHg 82%
    03:00 +3°C° 0 mm 2 m/S 476 mmHg 83%
    04:00 +3°C° 0 mm 2 m/S 476 mmHg 84%
    05:00 +2°C° 0 mm 2 m/S 476 mmHg 85%
    06:00 +3°C° 0 mm 2 m/S 476 mmHg 82%
    07:00 +4°C° 0 mm 2 m/S 476 mmHg 79%
    08:00 +4°C° 0 mm 2 m/S 477 mmHg 75%
    09:00 +5°C° 0 mm 2 m/S 477 mmHg 72%
    10:00 +6°C° 0 mm 2 m/S 478 mmHg 68%
    11:00 +7°C° 0 mm 2 m/S 478 mmHg 65%
    12:00 +7°C° 0.2 mm 2 m/S 479 mmHg 62%
    13:00 +8°C° 0.2 mm 3 m/S 479 mmHg 60%
    14:00 +9°C° 0.2 mm 3 m/S 479 mmHg 57%
    15:00 +8°C° 0.8 mm 3 m/S 479 mmHg 62%
    16:00 +7°C° 0.8 mm 2 m/S 478 mmHg 67%
    17:00 +6°C° 0.8 mm 2 m/S 477 mmHg 71%
    18:00 +6°C° 1.2 mm 2 m/S 477 mmHg 77%
    19:00 +5°C° 1.2 mm 2 m/S 476 mmHg 82%
    20:00 +4°C° 1.2 mm 2 m/S 476 mmHg 88%
    21:00 +3°C° 0.5 mm 2 m/S 476 mmHg 89%
    22:00 +3°C° 0.5 mm 2 m/S 476 mmHg 90%
    23:00 +3°C° 0.5 mm 2 m/S 476 mmHg 90%

    28 Mai, Donnerstag

    Zeit Temperatur Niederschläge Wind Luftdruck Luftfeuchtigkeit
    00:00 +3°C° 0.1 mm 2 m/S 476 mmHg 89%
    01:00 +3°C° 0.1 mm 2 m/S 475 mmHg 88%
    02:00 +3°C° 0.1 mm 1 m/S 475 mmHg 87%
    03:00 +2°C° 0 mm 2 m/S 475 mmHg 86%
    04:00 +2°C° 0 mm 2 m/S 474 mmHg 85%
    05:00 +2°C° 0 mm 2 m/S 474 mmHg 84%
    06:00 +3°C° 0 mm 2 m/S 475 mmHg 81%
    07:00 +3°C° 0 mm 2 m/S 475 mmHg 78%
    08:00 +4°C° 0 mm 2 m/S 476 mmHg 75%
    09:00 +4°C° 0 mm 2 m/S 476 mmHg 72%
    10:00 +6°C° 0 mm 1 m/S 476 mmHg 69%
    11:00 +7°C° 0 mm 1 m/S 477 mmHg 67%
    12:00 +7°C° 0.2 mm 2 m/S 477 mmHg 65%
    13:00 +7°C° 0.2 mm 2 m/S 477 mmHg 62%
    14:00 +8°C° 0.2 mm 2 m/S 478 mmHg 60%
    15:00 +8°C° 0.4 mm 2 m/S 477 mmHg 61%
    16:00 +9°C° 0.4 mm 1 m/S 477 mmHg 61%
    17:00 +8°C° 0.4 mm 1 m/S 477 mmHg 61%
    18:00 +8°C° 0.1 mm 1 m/S 477 mmHg 66%
    19:00 +7°C° 0.1 mm 1 m/S 477 mmHg 70%
    20:00 +5°C° 0.1 mm 2 m/S 476 mmHg 74%
    21:00 +6°C° 0 mm 1 m/S 476 mmHg 76%
    22:00 +6°C° 0 mm 1 m/S 476 mmHg 78%
    23:00 +5°C° 0 mm 1 m/S 476 mmHg 80%

    29 Mai, Freitag

    Zeit Temperatur Niederschläge Wind Luftdruck Luftfeuchtigkeit
    00:00 +5°C° 0.1 mm 1 m/S 476 mmHg 81%
    01:00 +5°C° 0.1 mm 1 m/S 476 mmHg 82%
    02:00 +4°C° 0.1 mm 0 m/S 475 mmHg 83%
    03:00 +4°C° 0.1 mm 0 m/S 475 mmHg 84%
    04:00 +3°C° 0.1 mm 0 m/S 475 mmHg 85%
    05:00 +3°C° 0.1 mm 0 m/S 475 mmHg 86%
    06:00 +4°C° 0.1 mm 0 m/S 475 mmHg 82%
    07:00 +4°C° 0.1 mm 0 m/S 476 mmHg 79%
    08:00 +5°C° 0.1 mm 0 m/S 476 mmHg 75%
    09:00 +6°C° 0.3 mm 0 m/S 477 mmHg 70%
    10:00 +8°C° 0.3 mm 1 m/S 478 mmHg 66%
    11:00 +9°C° 0.3 mm 1 m/S 479 mmHg 61%
    12:00 +9°C° 0.7 mm 1 m/S 479 mmHg 60%
    13:00 +8°C° 0.7 mm 2 m/S 479 mmHg 59%
    14:00 +9°C° 0.7 mm 2 m/S 479 mmHg 58%
    15:00 +9°C° 0.8 mm 3 m/S 479 mmHg 61%
    16:00 +8°C° 0.8 mm 3 m/S 479 mmHg 65%
    17:00 +8°C° 0.8 mm 3 m/S 478 mmHg 68%
    18:00 +7°C° 0.6 mm 3 m/S 478 mmHg 71%
    19:00 +7°C° 0.6 mm 2 m/S 478 mmHg 74%
    20:00 +6°C° 0.6 mm 2 m/S 478 mmHg 76%
    21:00 +7°C° 0.1 mm 1 m/S 477 mmHg 78%
    22:00 +6°C° 0.1 mm 1 m/S 477 mmHg 80%
    23:00 +6°C° 0.1 mm 1 m/S 477 mmHg 82%

    30 Mai, Samstag

    Zeit Temperatur Niederschläge Wind Luftdruck Luftfeuchtigkeit
    00:00 +5°C° 0 mm 1 m/S 477 mmHg 83%
    01:00 +5°C° 0 mm 1 m/S 476 mmHg 84%
    02:00 +5°C° 0 mm 1 m/S 476 mmHg 85%
    03:00 +5°C° 0 mm 1 m/S 476 mmHg 85%
    04:00 +5°C° 0 mm 1 m/S 476 mmHg 86%
    05:00 +4°C° 0 mm 1 m/S 476 mmHg 87%
    06:00 +5°C° 0 mm 1 m/S 476 mmHg 84%
    07:00 +5°C° 0 mm 1 m/S 477 mmHg 82%
    08:00 +6°C° 0 mm 1 m/S 477 mmHg 79%
    09:00 +7°C° 0.3 mm 1 m/S 478 mmHg 75%
    10:00 +8°C° 0.3 mm 1 m/S 478 mmHg 70%
    11:00 +7°C° 0.3 mm 2 m/S 479 mmHg 66%
    12:00 +8°C° 0.8 mm 2 m/S 479 mmHg 66%
    13:00 +8°C° 0.8 mm 3 m/S 479 mmHg 65%
    14:00 +8°C° 0.8 mm 3 m/S 479 mmHg 64%
    15:00 +8°C° 0.8 mm 3 m/S 479 mmHg 66%
    16:00 +7°C° 0.8 mm 4 m/S 479 mmHg 68%
    17:00 +6°C° 0.8 mm 4 m/S 478 mmHg 70%
    18:00 +6°C° 0.4 mm 4 m/S 478 mmHg 72%
    19:00 +5°C° 0.4 mm 3 m/S 478 mmHg 75%
    20:00 +4°C° 0.4 mm 3 m/S 477 mmHg 78%
    21:00 +4°C° 0 mm 3 m/S 477 mmHg 77%
    22:00 +5°C° 0 mm 2 m/S 477 mmHg 76%
    23:00 +4°C° 0 mm 2 m/S 477 mmHg 75%
    Mehr zeigen